Tracking 35274 objects as of 12-Sep-2026
HD Live streaming from Space Station
objects crossing your sky now

COSMOS 879


COSMOS 879 is no longer on orbit


NORAD ID: 9599
Int'l Code: 1976-119A
Launch date: December 9, 1976
Source: Commonwealth of Independent States (former USSR) (CIS)
Launch site: PLESETSK MISSILE AND SPACE COMPLEX (PKMTR)
Decay date: 1976-12-22
Your satellite tracking list
Your tracking list is empty




NASA's NSSDC Master Catalog

Two Line Element Set (TLE):
1 09599U 76119  A 76356.98845005  .00167378 +00000-0 +00000-0 0  9994
2 09599 081.3737 236.0085 0003892 275.4820 084.5970 16.24831390002043
Source of the keplerian elements: AFSPC